OBJECT C, 61896

Orbit data source: Space-Track

You're viewing an Uncataloged Satellite

Recently launched and/or uncataloged satellites may have evolving metadata. Metadata may include but not limited to: Owner, Maufacturer, Bus, Motor, and Mission.

OBJECT C, 61896 is a Chinese satellite in SSO that was launched on Mon, 11 Nov 2024 UTC via a LIJIAN-1 launch vehicle from the Jiuquan Satellite Launch Center, China (JSC). Unknown objects in Earth's orbit typically refer to objects detected orbiting the Earth but have not yet been identified or cataloged. These objects could be anything from previously untracked satellites, spent rocket stages, debris from satellite collisions, or even natural meteoroids temporarily captured by Earth's gravity.

Loading next visibility...
Identifier
61896, 2024-205C
Orbit
SSO
Country
Flag of CNCN / PRC
Related business
None
Manufacturer
Unknown
Mission
Operational Commercial Meteo Radio Occ.
Bus & Motor
Unknown
Mass
Unknown
Launch date (UTC)
2024-11-11 (11 months ago)
Launch vehicle
LIJIAN-1
Launch site
Jiuquan Satellite Launch Center, China (JSC)
Object type
Unknown
Shape & HBR
Box + 1 Pan, 2.5 m
Radar Cross Section
5.339 m², Medium (>0.1 m² and < 1m²)

Expand to show TLE details & history
Last TLE update: 3 hours ago

TLE from 3 hours ago
0 OBJECT C
1 61896U 24205C   25298.54136632  .00018001  00000-0  89038-3 0  9990
2 61896  97.4390   9.5727 0023651 120.1388 240.2194 15.17625060 52680
Epoch: 2025-10-25T12:59Z
TLE epoch observation values (Epoch: 2025-10-25T12:59:34.050Z)
Latitude
0.00003°
Longitude
140.51039°
Altitude
524.233 km
Speed
7.597 km/s
True Right ascension
00h 38m 17s
True Declination
0° 00' 00"
Sunlit
Object was in full shadow at epoch
Visualization orbit readout
Latitude
Unknown
Longitude
Unknown
Altitude
Unknown
Speed
Unknown
Apparent Right ascension
Unknown
Apparent Declination
Unknown
Sunlit
N/A
Visualization observer readout
Local Sidereal Time
11:27:39
Azimuth
Unknown
Elevation
Unknown
Doppler factor
Unknown
Orbital elements
Apogee altitude
526.282 km
Perigee altitude
493.7 km
Semi-major axis
6,888.128 km
Eccentricity
0.00237
Inclination
97.439°
RAAN
9.5727°
Arg. of periapsis
120.1388°
True anomaly
239.98452°
Mean anomaly
240.2194°
Eccentric anomaly
240.10192°
Mean motion
3.79657 °/min
Orbital period
94.82 mins
BSTAR
0.00089038
Loading maneuver chart data...
Computing Atmospheric mass density...
Loading historical data...
Loading historical data...
Loading historical data...
Loading historical data...
Loading historical data...
Loading historical data...
Loading historical data...

Documentation

Showing up to 5 results
|